Simultaneous Nadir Overpasses (SNOs) Predictions

Prediction of SNOs between GOES-15 and TERRA Satellite Orbit:

Table of predicted SNOs for the next 14.0 days since TLE Epoch: 9/20/2015
Index Date Time (GOES-15) GOES-15 Lat,Lon TERRA Lat,Lon Distance(km) Time Diff (sec)
1 09/20/2015 07:46:57 0.34,-135.24 -0.54,-139.36 467.54 80
2 09/21/2015 19:15:59 -0.32,-135.30 -1.18,-131.20 465.96 80
3 09/22/2015 07:34:43 0.33,-135.23 0.11,-136.39 131.20 80
4 09/24/2015 07:25:08 0.33,-135.22 0.70,-133.42 204.50 80
5 09/24/2015 19:43:43 -0.34,-135.27 0.38,-138.57 376.00 80
6 09/26/2015 19:31:29 -0.33,-135.25 -0.28,-135.61 40.99 80
7 09/28/2015 19:21:54 -0.33,-135.22 -0.88,-132.63 293.55 80
8 09/29/2015 07:43:17 0.34,-135.15 -0.24,-137.82 303.47 80
9 10/01/2015 07:28:22
